| time (UTC) | temp F | wind direction | speed MPH | gust MPH | rain 1hr in | rain 24hr in | rain mn in | humidity % | barometer mb |
| 20260506051029 | 37 | 13 | 4.0 | 11.0 | 0.00 | 0.00 | 0.00 | 63 | 1015.4 |
| 20260506050528 | 37 | 338 | 6.0 | 12.0 | 0.00 | 0.00 | 0.00 | 63 | 1015.4 |
| 20260506045027 | 38 | 324 | 3.0 | 12.0 | 0.00 | 0.00 | 0.00 | 61 | 1015.3 |
| 20260506044552 | 38 | 355 | 5.0 | 12.0 | 0.00 | 0.00 | 0.00 | 61 | 1015.2 |
| 20260506044026 | 38 | 317 | 7.0 | 12.0 | 0.00 | 0.00 | 0.00 | 61 | 1015.2 |
| 20260506043526 | 38 | 355 | 2.0 | 12.0 | 0.00 | 0.00 | 0.00 | 61 | 1015.2 |
| 20260506043025 | 38 | 350 | 5.0 | 13.0 | 0.00 | 0.00 | 0.00 | 60 | 1015.1 |
| 20260506042525 | 38 | 321 | 8.0 | 13.0 | 0.00 | 0.00 | 0.00 | 60 | 1015.2 |
| 20260506042025 | 38 | 347 | 8.0 | 12.0 | 0.00 | 0.00 | 0.00 | 60 | 1015.1 |
| 20260506041525 | 38 | 346 | 6.0 | 12.0 | 0.00 | 0.00 | 0.00 | 60 | 1015.1 |
| 20260506041030 | 38 | 306 | 5.0 | 13.0 | 0.00 | 0.00 | 0.00 | 60 | 1015.0 |
| 20260506040524 | 38 | 10 | 7.0 | 13.0 | 0.00 | 0.00 | 0.00 | 59 | 1015.1 |
| 20260506040028 | 38 | 329 | 6.0 | 14.0 | 0.00 | 0.00 | 0.00 | 59 | 1015.1 |
| 20260506035526 | 38 | 338 | 5.0 | 13.0 | 0.00 | 0.00 | 0.00 | 59 | 1015.1 |
| 20260506035024 | 38 | 300 | 5.0 | 12.0 | 0.00 | 0.00 | 0.00 | 59 | 1015.0 |
| 20260506034544 | 38 | 12 | 6.0 | 13.0 | 0.00 | 0.00 | 0.00 | 59 | 1015.0 |
| 20260506034024 | 39 | 350 | 8.0 | 13.0 | 0.00 | 0.00 | 0.00 | 59 | 1015.0 |
| 20260506033522 | 39 | 355 | 6.0 | 12.0 | 0.00 | 0.00 | 0.00 | 59 | 1015.0 |
| 20260506033022 | 39 | 287 | 5.0 | 13.0 | 0.00 | 0.00 | 0.00 | 59 | 1015.1 |
| 20260506032522 | 39 | 355 | 8.0 | 16.0 | 0.00 | 0.00 | 0.00 | 59 | 1015.0 |
| 20260506032024 | 39 | 331 | 6.0 | 16.0 | 0.00 | 0.00 | 0.00 | 59 | 1015.1 |
| 20260506031522 | 39 | 303 | 7.0 | 16.0 | 0.00 | 0.00 | 0.00 | 58 | 1015.0 |
| 20260506031022 | 39 | 304 | 7.0 | 16.0 | 0.00 | 0.00 | 0.00 | 58 | 1015.0 |
| 20260506030522 | 39 | 344 | 7.0 | 15.0 | 0.00 | 0.00 | 0.00 | 58 | 1015.0 |
| 20260506030021 | 39 | 329 | 9.0 | 15.0 | 0.00 | 0.00 | 0.00 | 57 | 1015.0 |
| 20260506025522 | 39 | 324 | 8.0 | 16.0 | 0.00 | 0.00 | 0.00 | 57 | 1014.9 |
| 20260506025022 | 39 | 321 | 8.0 | 16.0 | 0.00 | 0.00 | 0.00 | 57 | 1014.9 |
| 20260506024520 | 39 | 351 | 8.0 | 15.0 | 0.00 | 0.00 | 0.00 | 57 | 1014.9 |
| 20260506024020 | 39 | 293 | 8.0 | 13.0 | 0.00 | 0.00 | 0.00 | 56 | 1014.9 |
| 20260506023519 | 39 | 325 | 8.0 | 13.0 | 0.00 | 0.00 | 0.00 | 56 | 1014.8 |
| 20260506023018 | 40 | 337 | 7.0 | 13.0 | 0.00 | 0.00 | 0.00 | 56 | 1014.7 |
| 20260506022518 | 40 | 324 | 9.0 | 15.0 | 0.00 | 0.00 | 0.00 | 56 | 1014.6 |
| 20260506022016 | 40 | 330 | 6.0 | 15.0 | 0.00 | 0.00 | 0.00 | 56 | 1014.5 |
| 20260506021516 | 40 | 324 | 7.0 | 14.0 | 0.00 | 0.00 | 0.00 | 56 | 1014.5 |
| 20260506021016 | 40 | 360 | 7.0 | 14.0 | 0.00 | 0.00 | 0.00 | 55 | 1014.5 |
| 20260506020514 | 40 | 338 | 5.0 | 14.0 | 0.00 | 0.00 | 0.00 | 56 | 1014.4 |
| 20260506020014 | 40 | 326 | 3.0 | 17.0 | 0.00 | 0.00 | 0.00 | 55 | 1014.2 |
| 20260506015513 | 40 | 24 | 7.0 | 13.0 | 0.00 | 0.00 | 0.00 | 55 | 1014.1 |
| 20260506015012 | 40 | 333 | 5.0 | 12.0 | 0.00 | 0.00 | 0.00 | 55 | 1014.1 |
| 20260506014512 | 40 | 343 | 5.0 | 14.0 | 0.00 | 0.00 | 0.00 | 55 | 1014.1 |
| 20260506014011 | 40 | 335 | 8.0 | 14.0 | 0.00 | 0.00 | 0.00 | 54 | 1014.0 |
| 20260506013511 | 40 | 343 | 9.0 | 14.0 | 0.00 | 0.00 | 0.00 | 54 | 1014.0 |
| 20260506013010 | 40 | 340 | 6.0 | 14.0 | 0.00 | 0.00 | 0.00 | 54 | 1013.9 |
| 20260506012510 | 41 | 338 | 7.0 | 14.0 | 0.00 | 0.00 | 0.00 | 54 | 1013.9 |
| 20260506012008 | 41 | 308 | 9.0 | 15.0 | 0.00 | 0.00 | 0.00 | 54 | 1013.9 |
| 20260506011513 | 41 | 330 | 9.0 | 15.0 | 0.00 | 0.00 | 0.00 | 53 | 1013.7 |
| 20260506011012 | 41 | 316 | 7.0 | 18.0 | 0.00 | 0.00 | 0.00 | 54 | 1013.7 |
| 20260506010508 | 41 | 307 | 9.0 | 18.0 | 0.00 | 0.00 | 0.00 | 53 | 1013.6 |
| 20260506010010 | 41 | 345 | 6.0 | 12.0 | 0.00 | 0.00 | 0.00 | 53 | 1013.6 |
| 20260506005508 | 41 | 340 | 7.0 | 17.0 | 0.00 | 0.00 | 0.00 | 53 | 1013.6 |
| 20260506005007 | 41 | 269 | 11.0 | 17.0 | 0.00 | 0.00 | 0.00 | 53 | 1013.5 |
| 20260506004513 | 41 | 329 | 10.0 | 15.0 | 0.00 | 0.00 | 0.00 | 53 | 1013.5 |
| 20260506004007 | 41 | 275 | 8.0 | 15.0 | 0.00 | 0.00 | 0.00 | 53 | 1013.6 |
| 20260506003506 | 41 | 327 | 11.0 | 15.0 | 0.00 | 0.00 | 0.00 | 52 | 1013.5 |
| 20260506003008 | 41 | 321 | 7.0 | 15.0 | 0.00 | 0.00 | 0.00 | 53 | 1013.5 |
| 20260506002508 | 42 | 319 | 9.0 | 15.0 | 0.00 | 0.00 | 0.00 | 52 | 1013.5 |
| 20260506002006 | 42 | 306 | 6.0 | 15.0 | 0.00 | 0.00 | 0.00 | 52 | 1013.5 |
| 20260506001506 | 42 | 327 | 6.0 | 16.0 | 0.00 | 0.00 | 0.00 | 51 | 1013.6 |
| 20260506001006 | 42 | 294 | 9.0 | 16.0 | 0.00 | 0.00 | 0.00 | 51 | 1013.5 |
| 20260506000507 | 42 | 321 | 5.0 | 13.0 | 0.00 | 0.00 | 0.00 | 52 | 1013.4 |
| 20260506000105 | 42 | 326 | 5.0 | 13.0 | 0.00 | 0.00 | 0.00 | 52 | 1013.5 |
| 20260505235505 | 42 | 280 | 7.0 | 16.0 | 0.00 | 0.00 | 0.00 | 51 | 1013.5 |
| 20260505235004 | 42 | 347 | 9.0 | 16.0 | 0.00 | 0.00 | 0.00 | 51 | 1013.4 |
| 20260505234508 | 42 | 336 | 8.0 | 15.0 | 0.00 | 0.00 | 0.00 | 51 | 1013.4 |
| 20260505234004 | 42 | 273 | 8.0 | 15.0 | 0.00 | 0.00 | 0.00 | 51 | 1013.4 |
| 20260505233503 | 42 | 287 | 6.0 | 14.0 | 0.00 | 0.00 | 0.00 | 51 | 1013.5 |
| 20260505233007 | 42 | 319 | 4.0 | 14.0 | 0.00 | 0.00 | 0.00 | 51 | 1013.3 |
| 20260505232502 | 42 | 341 | 8.0 | 19.0 | 0.00 | 0.00 | 0.00 | 51 | 1013.4 |
| 20260505232002 | 42 | 320 | 11.0 | 19.0 | 0.00 | 0.00 | 0.00 | 51 | 1013.5 |
| 20260505231506 | 42 | 360 | 8.0 | 15.0 | 0.00 | 0.00 | 0.00 | 51 | 1013.5 |
| 20260505231001 | 42 | 268 | 6.0 | 14.0 | 0.00 | 0.00 | 0.00 | 51 | 1013.4 |
| 20260505230501 | 42 | 302 | 7.0 | 18.0 | 0.00 | 0.00 | 0.00 | 51 | 1013.4 |
| 20260505230002 | 42 | 301 | 5.0 | 18.0 | 0.00 | 0.00 | 0.00 | 51 | 1013.3 |
| 20260505225502 | 43 | 334 | 7.0 | 16.0 | 0.00 | 0.00 | 0.00 | 52 | 1013.2 |
| 20260505225001 | 42 | 355 | 4.0 | 12.0 | 0.00 | 0.00 | 0.00 | 52 | 1013.2 |
| 20260505224601 | 42 | 348 | 6.0 | 14.0 | 0.00 | 0.00 | 0.00 | 52 | 1013.2 |
| 20260505224100 | 43 | 283 | 5.0 | 16.0 | 0.00 | 0.00 | 0.00 | 51 | 1013.1 |
| 20260505223559 | 43 | 319 | 10.0 | 16.0 | 0.00 | 0.00 | 0.00 | 50 | 1013.2 |
| 20260505223059 | 43 | 329 | 7.0 | 16.0 | 0.00 | 0.00 | 0.00 | 51 | 1013.1 |
| 20260505222559 | 43 | 284 | 9.0 | 16.0 | 0.00 | 0.00 | 0.00 | 50 | 1013.1 |
| 20260505222059 | 43 | 303 | 11.0 | 17.0 | 0.00 | 0.00 | 0.00 | 52 | 1013.1 |
| 20260505221601 | 43 | 344 | 11.0 | 17.0 | 0.00 | 0.00 | 0.00 | 51 | 1013.1 |
| 20260505221058 | 42 | 333 | 10.0 | 17.0 | 0.00 | 0.00 | 0.00 | 51 | 1013.1 |
| 20260505220558 | 42 | 325 | 11.0 | 17.0 | 0.00 | 0.00 | 0.00 | 51 | 1013.1 |
| 20260505220105 | 42 | 326 | 8.0 | 16.0 | 0.00 | 0.00 | 0.00 | 51 | 1013.0 |
| 20260505215558 | 43 | 276 | 7.0 | 16.0 | 0.00 | 0.00 | 0.00 | 51 | 1013.1 |
| 20260505215058 | 43 | 317 | 9.0 | 17.0 | 0.00 | 0.00 | 0.00 | 51 | 1013.1 |
| 20260505214605 | 43 | 331 | 6.0 | 17.0 | 0.00 | 0.00 | 0.00 | 51 | 1013.1 |
| 20260505214058 | 43 | 326 | 8.0 | 14.0 | 0.00 | 0.00 | 0.00 | 51 | 1013.1 |
| 20260505213556 | 43 | 350 | 4.0 | 14.0 | 0.00 | 0.00 | 0.00 | 51 | 1013.1 |
| 20260505213103 | 43 | 328 | 6.0 | 17.0 | 0.00 | 0.00 | 0.00 | 52 | 1013.1 |
| 20260505212557 | 42 | 288 | 7.0 | 18.0 | 0.00 | 0.00 | 0.00 | 51 | 1013.0 |
| 20260505212056 | 43 | 336 | 11.0 | 20.0 | 0.00 | 0.00 | 0.00 | 51 | 1013.0 |
| 20260505211602 | 43 | 338 | 11.0 | 20.0 | 0.00 | 0.00 | 0.00 | 50 | 1013.1 |
| 20260505211100 | 43 | 328 | 9.0 | 15.0 | 0.00 | 0.00 | 0.00 | 51 | 1013.0 |
| 20260505210556 | 43 | 309 | 8.0 | 21.0 | 0.00 | 0.00 | 0.00 | 51 | 1013.0 |
| 20260505210056 | 43 | 302 | 10.0 | 22.0 | 0.00 | 0.00 | 0.00 | 50 | 1013.0 |
| 20260505205556 | 43 | 329 | 9.0 | 22.0 | 0.00 | 0.00 | 0.00 | 51 | 1013.0 |
| 20260505205056 | 43 | 330 | 11.0 | 18.0 | 0.00 | 0.00 | 0.00 | 50 | 1012.9 |
| 20260505204600 | 43 | 324 | 9.0 | 20.0 | 0.00 | 0.00 | 0.00 | 51 | 1012.9 |
| 20260505204056 | 43 | 322 | 13.0 | 20.0 | 0.00 | 0.00 | 0.00 | 50 | 1013.0 |
| 20260505203556 | 44 | 340 | 10.0 | 18.0 | 0.00 | 0.00 | 0.00 | 51 | 1012.9 |
| 20260505203056 | 44 | 309 | 8.0 | 17.0 | 0.00 | 0.00 | 0.00 | 50 | 1012.9 |
| 20260505202553 | 43 | 333 | 6.0 | 16.0 | 0.00 | 0.00 | 0.00 | 52 | 1012.9 |
| 20260505202053 | 43 | 343 | 11.0 | 16.0 | 0.00 | 0.00 | 0.00 | 51 | 1013.0 |
| 20260505201553 | 43 | 344 | 6.0 | 19.0 | 0.00 | 0.00 | 0.00 | 52 | 1013.0 |
| 20260505201052 | 43 | 286 | 9.0 | 19.0 | 0.00 | 0.00 | 0.00 | 51 | 1013.1 |
| 20260505200551 | 43 | 292 | 4.0 | 24.0 | 0.00 | 0.00 | 0.00 | 52 | 1013.1 |
| 20260505200050 | 42 | 312 | 11.0 | 24.0 | 0.00 | 0.00 | 0.00 | 53 | 1013.1 |
| 20260505195550 | 42 | 337 | 8.0 | 17.0 | 0.00 | 0.00 | 0.00 | 53 | 1013.1 |
| 20260505195049 | 42 | 323 | 8.0 | 16.0 | 0.00 | 0.00 | 0.00 | 54 | 1013.1 |
| 20260505194550 | 41 | 320 | 7.0 | 17.0 | 0.00 | 0.00 | 0.00 | 53 | 1013.2 |
| 20260505194049 | 41 | 315 | 11.0 | 17.0 | 0.00 | 0.00 | 0.00 | 53 | 1013.1 |
| 20260505193548 | 41 | 299 | 7.0 | 15.0 | 0.00 | 0.00 | 0.00 | 53 | 1013.1 |
| 20260505193052 | 41 | 344 | 6.0 | 16.0 | 0.00 | 0.00 | 0.00 | 53 | 1013.0 |
| 20260505192548 | 41 | 265 | 5.0 | 21.0 | 0.00 | 0.00 | 0.00 | 53 | 1013.1 |
| 20260505192048 | 41 | 298 | 9.0 | 21.0 | 0.00 | 0.00 | 0.00 | 54 | 1013.0 |
| 20260505191556 | 41 | 343 | 9.0 | 17.0 | 0.00 | 0.00 | 0.00 | 55 | 1013.0 |
| 20260505191048 | 41 | 316 | 10.0 | 17.0 | 0.00 | 0.00 | 0.00 | 55 | 1013.1 |
| 20260505190550 | 40 | 319 | 5.0 | 16.0 | 0.00 | 0.00 | 0.00 | 55 | 1013.1 |
| 20260505190047 | 41 | 360 | 8.0 | 17.0 | 0.00 | 0.00 | 0.00 | 56 | 1013.1 |
| 20260505185547 | 41 | 271 | 6.0 | 17.0 | 0.00 | 0.00 | 0.00 | 54 | 1013.1 |
| 20260505185047 | 41 | 344 | 7.0 | 17.0 | 0.00 | 0.00 | 0.00 | 54 | 1013.1 |
| 20260505184547 | 41 | 351 | 8.0 | 16.0 | 0.00 | 0.00 | 0.00 | 54 | 1013.1 |
| 20260505184047 | 41 | 317 | 8.0 | 18.0 | 0.00 | 0.00 | 0.00 | 54 | 1013.1 |
| 20260505183548 | 40 | 314 | 10.0 | 18.0 | 0.00 | 0.00 | 0.00 | 53 | 1013.0 |
| 20260505183047 | 41 | 343 | 7.0 | 16.0 | 0.00 | 0.00 | 0.00 | 53 | 1013.0 |
| 20260505182545 | 41 | 342 | 7.0 | 17.0 | 0.00 | 0.00 | 0.00 | 54 | 1013.0 |
| 20260505182049 | 41 | 273 | 7.0 | 19.0 | 0.00 | 0.00 | 0.00 | 54 | 1013.0 |
| 20260505181545 | 40 | 267 | 9.0 | 21.0 | 0.00 | 0.00 | 0.00 | 54 | 1012.9 |
| 20260505181045 | 40 | 292 | 10.0 | 21.0 | 0.00 | 0.00 | 0.00 | 54 | 1012.9 |
| 20260505180544 | 40 | 307 | 9.0 | 20.0 | 0.00 | 0.00 | 0.00 | 55 | 1012.9 |
| 20260505180052 | 40 | 355 | 10.0 | 20.0 | 0.00 | 0.00 | 0.00 | 54 | 1012.8 |
| 20260505175544 | 40 | 315 | 12.0 | 21.0 | 0.00 | 0.00 | 0.00 | 54 | 1012.8 |
| 20260505175047 | 40 | 321 | 10.0 | 21.0 | 0.00 | 0.00 | 0.00 | 54 | 1012.8 |
| 20260505174605 | 41 | 296 | 9.0 | 20.0 | 0.00 | 0.00 | 0.00 | 54 | 1012.8 |
| 20260505174044 | 41 | 281 | 12.0 | 23.0 | 0.00 | 0.00 | 0.00 | 54 | 1012.7 |
| 20260505173543 | 41 | 298 | 12.0 | 23.0 | 0.00 | 0.00 | 0.00 | 53 | 1012.5 |
| 20260505173044 | 41 | 177 | 11.0 | 21.0 | 0.00 | 0.00 | 0.00 | 53 | 1012.5 |
| 20260505172541 | 41 | 301 | 8.0 | 21.0 | 0.00 | 0.00 | 0.00 | 53 | 1012.4 |
| 20260505172042 | 40 | 9 | 10.0 | 21.0 | 0.00 | 0.00 | 0.00 | 54 | 1012.4 |
| 20260505171541 | 41 | 223 | 8.0 | 22.0 | 0.00 | 0.00 | 0.00 | 54 | 1012.2 |
| 20260505171041 | 41 | 17 | 6.0 | 22.0 | 0.00 | 0.00 | 0.00 | 53 | 1012.4 |
| 20260505170539 | 42 | 313 | 9.0 | 21.0 | 0.00 | 0.00 | 0.00 | 54 | 1012.3 |
| 20260505170048 | 41 | 337 | 11.0 | 22.0 | 0.00 | 0.00 | 0.00 | 55 | 1012.2 |
| 20260505165537 | 41 | 292 | 8.0 | 22.0 | 0.00 | 0.00 | 0.00 | 55 | 1012.2 |
| 20260505165037 | 41 | 319 | 11.0 | 17.0 | 0.00 | 0.00 | 0.00 | 56 | 1012.3 |
| 20260505164539 | 40 | 333 | 7.0 | 19.0 | 0.00 | 0.00 | 0.00 | 56 | 1012.3 |
| 20260505164039 | 40 | 291 | 13.0 | 19.0 | 0.00 | 0.00 | 0.00 | 56 | 1012.5 |
| 20260505163535 | 40 | 312 | 8.0 | 19.0 | 0.00 | 0.00 | 0.00 | 57 | 1012.4 |
| 20260505163039 | 41 | 321 | 10.0 | 19.0 | 0.00 | 0.00 | 0.00 | 57 | 1012.4 |
| 20260505162534 | 40 | 330 | 8.0 | 18.0 | 0.00 | 0.00 | 0.00 | 57 | 1012.3 |
| 20260505162034 | 40 | 331 | 8.0 | 20.0 | 0.00 | 0.00 | 0.00 | 56 | 1012.4 |
| 20260505161533 | 40 | 321 | 8.0 | 22.0 | 0.00 | 0.00 | 0.00 | 57 | 1012.3 |
| 20260505161035 | 40 | 261 | 10.0 | 22.0 | 0.00 | 0.00 | 0.00 | 57 | 1012.3 |
| 20260505160533 | 40 | 300 | 10.0 | 20.0 | 0.00 | 0.00 | 0.00 | 56 | 1012.2 |
| 20260505153034 | 40 | 284 | 9.0 | 19.0 | 0.00 | 0.00 | 0.00 | 60 | 1011.9 |
| 20260505152529 | 40 | 342 | 10.0 | 19.0 | 0.00 | 0.00 | 0.00 | 60 | 1011.8 |
| 20260505152026 | 40 | 313 | 8.0 | 20.0 | 0.00 | 0.00 | 0.00 | 60 | 1011.6 |
| 20260505151529 | 40 | 11 | 8.0 | 16.0 | 0.00 | 0.00 | 0.00 | 60 | 1011.5 |
| 20260505151025 | 40 | 319 | 10.0 | 16.0 | 0.00 | 0.00 | 0.00 | 60 | 1011.4 |
| 20260505150524 | 40 | 313 | 7.0 | 16.0 | 0.00 | 0.00 | 0.00 | 61 | 1011.4 |
| 20260505140511 | 37 | 336 | 6.0 | 13.0 | 0.00 | 0.00 | 0.00 | 66 | 1011.1 |
| 20260505124554 | 34 | 21 | 4.0 | 11.0 | 0.00 | 0.00 | 0.00 | 69 | 1010.2 |
| 20260505124054 | 35 | 12 | 3.0 | 10.0 | 0.00 | 0.00 | 0.00 | 70 | 1010.1 |
| 20260505123553 | 35 | 23 | 4.0 | 10.0 | 0.00 | 0.00 | 0.00 | 69 | 1010.0 |
| 20260505123109 | 35 | 13 | 4.0 | 8.0 | 0.00 | 0.00 | 0.00 | 70 | 1010.0 |
| 20260505122551 | 34 | 11 | 4.0 | 10.0 | 0.00 | 0.00 | 0.00 | 71 | 1009.9 |
| 20260505122049 | 33 | 9 | 4.0 | 10.0 | 0.00 | 0.00 | 0.00 | 72 | 1009.8 |
| 20260505121548 | 33 | 360 | 3.0 | 9.0 | 0.00 | 0.00 | 0.00 | 74 | 1009.7 |
| 20260505121047 | 33 | 5 | 3.0 | 8.0 | 0.00 | 0.00 | 0.00 | 75 | 1009.7 |
| 20260505120547 | 33 | 331 | 1.0 | 6.0 | 0.00 | 0.00 | 0.00 | 76 | 1009.6 |
| 20260505120047 | 33 | 331 | 1.0 | 5.0 | 0.00 | 0.00 | 0.00 | 77 | 1009.6 |
| 20260505115545 | 33 | 331 | 0.0 | 3.0 | 0.00 | 0.00 | 0.00 | 77 | 1009.5 |
| 20260505115045 | 33 | 331 | 2.0 | 3.0 | 0.00 | 0.00 | 0.00 | 77 | 1009.4 |
| 20260505114606 | 33 | 331 | 0.0 | 3.0 | 0.00 | 0.00 | 0.00 | 78 | 1009.4 |
| 20260505114045 | 33 | 331 | 0.0 | 4.0 | 0.00 | 0.00 | 0.00 | 79 | 1009.4 |
| 20260505113546 | 33 | 331 | 0.0 | 4.0 | 0.00 | 0.00 | 0.00 | 79 | 1009.5 |
| 20260505113043 | 33 | 331 | 1.0 | 5.0 | 0.00 | 0.00 | 0.00 | 80 | 1009.4 |
| 20260505112542 | 33 | 331 | 1.0 | 5.0 | 0.00 | 0.00 | 0.00 | 81 | 1009.4 |
| 20260505112043 | 33 | 331 | 2.0 | 5.0 | 0.00 | 0.00 | 0.00 | 81 | 1009.4 |
| 20260505111555 | 33 | 331 | 2.0 | 5.0 | 0.00 | 0.00 | 0.00 | 81 | 1009.4 |
| 20260505111043 | 33 | 332 | 2.0 | 4.0 | 0.00 | 0.00 | 0.00 | 82 | 1009.4 |
| 20260505110543 | 33 | 332 | 0.0 | 3.0 | 0.00 | 0.00 | 0.00 | 82 | 1009.3 |
| 20260505102037 | 33 | 332 | 0.0 | 0.0 | 0.00 | 0.00 | 0.00 | 82 | 1009.4 |
| 20260505101537 | 33 | 332 | 0.0 | 0.0 | 0.00 | 0.00 | 0.00 | 82 | 1009.3 |
| 20260505101038 | 33 | 332 | 0.0 | 0.0 | 0.00 | 0.00 | 0.00 | 82 | 1009.3 |
| 20260505100537 | 33 | 332 | 0.0 | 0.0 | 0.00 | 0.00 | 0.00 | 82 | 1009.3 |
| 20260505100037 | 33 | 332 | 0.0 | 0.0 | 0.00 | 0.00 | 0.00 | 82 | 1009.4 |
| 20260505095536 | 33 | 332 | 0.0 | 0.0 | 0.00 | 0.00 | 0.00 | 82 | 1009.3 |
| 20260505095038 | 33 | 332 | 0.0 | 0.0 | 0.00 | 0.00 | 0.00 | 82 | 1009.3 |
| 20260505094539 | 33 | 332 | 0.0 | 0.0 | 0.00 | 0.00 | 0.00 | 82 | 1009.4 |
| 20260505094036 | 33 | 332 | 0.0 | 0.0 | 0.00 | 0.00 | 0.00 | 82 | 1009.3 |
| 20260505093534 | 33 | 332 | 0.0 | 0.0 | 0.00 | 0.00 | 0.00 | 82 | 1009.2 |
| 20260505093036 | 33 | 332 | 0.0 | 0.0 | 0.00 | 0.00 | 0.00 | 82 | 1009.3 |
| 20260505092534 | 33 | 332 | 0.0 | 0.0 | 0.00 | 0.00 | 0.00 | 82 | 1009.1 |
| 20260505092034 | 33 | 332 | 0.0 | 3.0 | 0.00 | 0.00 | 0.00 | 81 | 1009.1 |
| 20260505091535 | 33 | 332 | 1.0 | 3.0 | 0.00 | 0.00 | 0.00 | 81 | 1009.2 |
| 20260505091031 | 33 | 332 | 0.0 | 3.0 | 0.00 | 0.00 | 0.00 | 81 | 1009.0 |
| 20260505090533 | 33 | 332 | 1.0 | 3.0 | 0.00 | 0.00 | 0.00 | 80 | 1009.0 |
| 20260505090036 | 33 | 332 | 1.0 | 4.0 | 0.00 | 0.00 | 0.00 | 80 | 1008.9 |
| 20260505085530 | 33 | 332 | 1.0 | 4.0 | 0.00 | 0.00 | 0.00 | 80 | 1008.9 |
| 20260505085030 | 33 | 332 | 1.0 | 4.0 | 0.00 | 0.00 | 0.00 | 80 | 1008.8 |
| 20260505084531 | 33 | 332 | 1.0 | 4.0 | 0.00 | 0.00 | 0.00 | 80 | 1008.7 |
| 20260505084029 | 33 | 332 | 0.0 | 3.0 | 0.00 | 0.00 | 0.00 | 80 | 1008.9 |
| 20260505083528 | 33 | 332 | 1.0 | 3.0 | 0.00 | 0.00 | 0.00 | 80 | 1008.9 |
| 20260505083040 | 33 | 332 | 0.0 | 2.0 | 0.00 | 0.00 | 0.00 | 80 | 1008.7 |
| 20260505082528 | 33 | 332 | 0.0 | 2.0 | 0.00 | 0.00 | 0.00 | 80 | 1008.7 |
| 20260505082028 | 32 | 332 | 0.0 | 3.0 | 0.00 | 0.00 | 0.00 | 80 | 1008.7 |
| 20260505081533 | 32 | 332 | 1.0 | 5.0 | 0.00 | 0.00 | 0.00 | 80 | 1008.9 |
| 20260505081028 | 32 | 332 | 2.0 | 5.0 | 0.00 | 0.00 | 0.00 | 80 | 1008.8 |
| 20260505080527 | 32 | 336 | 2.0 | 4.0 | 0.00 | 0.00 | 0.00 | 79 | 1008.7 |
| 20260505080038 | 32 | 336 | 2.0 | 4.0 | 0.00 | 0.00 | 0.00 | 79 | 1008.7 |
| 20260505075526 | 32 | 336 | 1.0 | 3.0 | 0.00 | 0.00 | 0.00 | 78 | 1008.8 |
| 20260505075026 | 32 | 336 | 1.0 | 3.0 | 0.00 | 0.00 | 0.00 | 78 | 1008.8 |
| 20260505074526 | 32 | 336 | 1.0 | 4.0 | 0.00 | 0.00 | 0.00 | 77 | 1008.8 |
| 20260505074026 | 32 | 338 | 2.0 | 4.0 | 0.00 | 0.00 | 0.00 | 76 | 1008.8 |
| 20260505073523 | 32 | 338 | 1.0 | 4.0 | 0.00 | 0.00 | 0.00 | 74 | 1008.7 |
| 20260505073023 | 33 | 338 | 1.0 | 3.0 | 0.00 | 0.00 | 0.00 | 73 | 1008.7 |
| 20260505072522 | 33 | 338 | 0.0 | 2.0 | 0.00 | 0.00 | 0.00 | 73 | 1008.7 |
| 20260505072021 | 33 | 338 | 0.0 | 3.0 | 0.00 | 0.00 | 0.00 | 72 | 1008.6 |
| 20260505071521 | 33 | 338 | 1.0 | 3.0 | 0.00 | 0.00 | 0.00 | 72 | 1008.7 |
| 20260505071020 | 33 | 338 | 1.0 | 3.0 | 0.00 | 0.00 | 0.00 | 71 | 1008.6 |
| 20260505070521 | 33 | 338 | 1.0 | 3.0 | 0.00 | 0.00 | 0.00 | 71 | 1008.6 |
| 20260505070019 | 33 | 338 | 1.0 | 3.0 | 0.00 | 0.00 | 0.00 | 70 | 1008.6 |
| 20260505065520 | 34 | 338 | 2.0 | 5.0 | 0.00 | 0.00 | 0.00 | 70 | 1008.6 |
| 20260505065017 | 34 | 338 | 2.0 | 5.0 | 0.00 | 0.00 | 0.00 | 69 | 1008.6 |
| 20260505064517 | 34 | 338 | 2.0 | 4.0 | 0.00 | 0.00 | 0.00 | 69 | 1008.6 |
| 20260505064018 | 34 | 338 | 2.0 | 5.0 | 0.00 | 0.00 | 0.00 | 68 | 1008.5 |
| 20260505063516 | 34 | 338 | 2.0 | 5.0 | 0.00 | 0.00 | 0.00 | 68 | 1008.5 |
| 20260505063015 | 34 | 339 | 2.0 | 5.0 | 0.00 | 0.00 | 0.00 | 69 | 1008.6 |
| 20260505062515 | 34 | 339 | 2.0 | 5.0 | 0.00 | 0.00 | 0.00 | 69 | 1008.6 |
| 20260505062014 | 34 | 340 | 2.0 | 6.0 | 0.00 | 0.00 | 0.00 | 70 | 1008.5 |
| 20260505061527 | 35 | 340 | 1.0 | 6.0 | 0.00 | 0.00 | 0.00 | 70 | 1008.5 |
| 20260505061014 | 35 | 341 | 2.0 | 8.0 | 0.00 | 0.00 | 0.00 | 70 | 1008.4 |
| 20260505060513 | 35 | 342 | 3.0 | 8.0 | 0.00 | 0.00 | 0.00 | 71 | 1008.6 |
| 20260505060013 | 35 | 342 | 1.0 | 6.0 | 0.00 | 0.00 | 0.00 | 71 | 1008.5 |
| 20260505055512 | 35 | 346 | 1.0 | 5.0 | 0.00 | 0.00 | 0.00 | 71 | 1008.5 |
| 20260505055011 | 35 | 349 | 2.0 | 6.0 | 0.00 | 0.00 | 0.00 | 71 | 1008.4 |